OE5ERN-10 Weather Reports


time (UTC)temp
C
wind
direction
speed
KPH
gust
KPH
rain 1hr
cm
rain 24hr
cm
rain mn
cm
humidity
%
barometer
mb
20260906005734 12 337 3.2 6.4 0.00 0.25 0.00 83 1028.6
20260906004234 12 337 4.8 4.8 0.00 0.25 0.00 83 1028.7
20260906002734 12 292 0.0 1.6 0.00 0.25 0.00 83 1028.5
20260906001234 13 337 4.8 4.8 0.00 0.25 0.00 83 1028.5
20260905235734 13 337 1.6 3.2 0.00 0.25 0.00 83 1028.2
20260905234234 12 337 3.2 3.2 0.00 0.25 0.00 83 1028.2
20260905232734 13 337 0.0 0.0 0.00 0.25 0.00 83 1028.0
20260905231234 13 292 3.2 6.4 0.00 0.25 0.00 83 1028.2
20260905225734 13 337 0.0 0.0 0.00 0.25 0.00 83 1028.1
20260905224234 13 315 3.2 3.2 0.00 0.25 0.00 83 1027.9
20260905222734 13 315 0.0 0.0 0.00 0.25 0.00 83 1027.9
20260905221234 13 292 0.0 0.0 0.00 0.25 0.00 82 1027.6
20260905215734 14 292 0.0 3.2 0.00 0.25 0.00 82 1027.6
20260905214234 14 337 3.2 3.2 0.00 0.25 0.00 81 1027.2
20260905212734 15 292 0.0 0.0 0.00 0.25 0.00 80 1027.0
20260905211234 15 337 3.2 3.2 0.00 0.25 0.00 80 1027.0
20260905205734 15 315 0.0 4.8 0.00 0.25 0.00 80 1027.0
20260905204234 15 337 0.0 0.0 0.00 0.25 0.00 79 1027.0
20260905202734 15 337 0.0 0.0 0.00 0.25 0.00 78 1026.8
20260905201235 16 337 0.0 0.0 0.00 0.25 0.00 77 1026.8
20260905195735 16 337 3.2 3.2 0.00 0.25 0.00 75 1026.5
20260905194235 17 337 3.2 3.2 0.00 0.25 0.00 73 1026.5
20260905192735 17 315 1.6 3.2 0.00 0.25 0.00 73 1026.2
20260905191235 17 292 1.6 3.2 0.00 0.25 0.00 72 1026.2
20260905185735 17 315 0.0 0.0 0.00 0.25 0.00 70 1026.0
20260905184235 18 315 1.6 1.6 0.00 0.25 0.00 69 1025.9
20260905182735 19 270 0.0 3.2 0.00 0.25 0.00 65 1025.6
20260905181235 20 270 4.8 4.8 0.00 0.25 0.00 64 1025.4
20260905175735 20 292 4.8 4.8 0.00 0.25 0.00 62 1025.3
20260905174235 21 270 4.8 6.4 0.00 0.25 0.00 60 1025.1
20260905172735 21 270 4.8 4.8 0.00 0.25 0.00 59 1024.8
20260905171235 22 270 4.8 4.8 0.00 0.25 0.00 56 1024.8
20260905165735 23 225 0.0 17.7 0.00 0.25 0.00 55 1024.8
20260905164235 23 202 8.0 9.7 0.00 0.25 0.00 55 1024.5
20260905162735 24 315 8.0 8.0 0.00 0.25 0.00 52 1024.7
20260905161235 24 270 3.2 3.2 0.00 0.25 0.00 51 1024.4
20260905155735 24 225 3.2 3.2 0.00 0.25 0.00 51 1024.3
20260905154235 25 292 6.4 6.4 0.00 0.25 0.00 51 1024.3
20260905152735 25 270 4.8 9.7 0.00 0.25 0.00 50 1024.4
20260905151235 25 270 11.3 11.3 0.00 0.25 0.00 49 1024.4
20260905145735 26 247 3.2 4.8 0.00 0.25 0.00 49 1024.1
20260905144235 26 292 17.7 17.7 0.00 0.25 0.00 49 1024.2
20260905142735 26 315 24.1 24.1 0.00 0.25 0.00 49 1024.2
20260905141235 26 247 4.8 6.4 0.00 0.25 0.00 50 1024.4
20260905135735 25 225 12.9 12.9 0.00 0.25 0.00 51 1024.5
20260905134235 25 247 4.8 4.8 0.00 0.25 0.00 52 1024.6
20260905132735 25 292 12.9 12.9 0.00 0.25 0.00 52 1024.5
20260905131235 24 270 11.3 12.9 0.00 0.25 0.00 53 1024.7
20260905125735 25 270 1.6 16.1 0.00 0.25 0.00 52 1024.8
20260905124235 25 292 0.0 17.7 0.00 0.25 0.00 52 1025.3
20260905122735 25 225 4.8 16.1 0.00 0.25 0.00 53 1025.4
20260905121235 25 225 0.0 0.0 0.00 0.25 0.00 52 1025.2
20260905115735 25 270 1.6 9.7 0.00 0.25 0.00 52 1025.4
20260905114235 24 225 4.8 9.7 0.00 0.25 0.00 53 1025.3
20260905112735 24 225 3.2 14.5 0.00 0.25 0.00 53 1025.4
20260905111235 25 225 14.5 14.5 0.00 0.25 0.00 52 1025.4
20260905105735 26 270 0.0 6.4 0.00 0.25 0.00 51 1025.3
20260905104235 27 292 9.7 9.7 0.00 0.25 0.00 51 1025.4
20260905102735 26 247 9.7 9.7 0.00 0.25 0.00 52 1025.5
20260905101235 27 225 3.2 6.4 0.00 0.25 0.00 52 1025.5
20260905095735 28 292 0.0 0.0 0.00 0.25 0.00 54 1025.9
20260905094235 25 292 4.8 4.8 0.00 0.25 0.00 62 1025.9
20260905092735 22 270 0.0 0.0 0.00 0.25 0.00 72 1026.1
20260905091235 20 270 1.6 1.6 0.00 0.25 0.00 77 1026.0
20260905085735 18 247 1.6 6.4 0.00 0.25 0.00 79 1025.8
20260905084235 18 270 1.6 1.6 0.00 0.25 0.00 81 1026.0
20260905082735 17 270 0.0 4.8 0.00 0.25 0.00 81 1026.1
20260905081235 17 247 1.6 3.2 0.00 0.25 0.00 83 1026.0
20260905075735 17 247 3.2 3.2 0.05 0.25 0.00 84 1026.0
20260905074235 16 270 3.2 3.2 0.15 0.25 0.00 84 1025.5
20260905072735 16 270 0.0 0.0 0.15 0.25 0.00 84 1025.3
20260905071235 15 270 0.0 0.0 0.20 0.25 0.00 84 1025.1
20260905065735 15 270 0.0 3.2 0.15 0.20 0.00 84 1025.1
20260905064236 15 247 0.0 4.8 0.05 0.10 0.00 84 1025.1
20260905062736 16 247 1.6 1.6 0.05 0.10 0.00 83 1024.6
20260905061236 16 270 3.2 3.2 0.00 0.05 0.00 83 1024.6
20260905055736 16 225 4.8 4.8 0.00 0.05 0.00 83 1023.9
20260905054236 16 90 0.0 3.2 0.00 0.05 0.00 83 1023.2
20260905052736 16 112 1.6 1.6 0.05 0.05 0.00 83 1023.0
20260905051236 16 247 3.2 3.2 0.05 0.05 0.00 83 1023.7
20260905045736 16 90 0.0 0.0 0.05 0.05 0.00 81 1021.8
20260905044236 16 67 1.6 8.0 0.05 0.05 0.00 81 1021.5
20260905042736 17 67 4.8 12.9 0.00 0.00 0.00 79 1021.3
20260905041236 19 45 8.0 11.3 0.00 0.00 0.00 73 1020.5
20260905035736 20 90 0.0 3.2 0.00 0.00 0.00 68 1020.2
20260905034236 20 67 1.6 1.6 0.00 0.00 0.00 70 1019.9
20260905032736 18 67 0.0 3.2 0.00 0.00 0.00 73 1019.9
20260905031236 18 337 0.0 0.0 0.00 0.00 0.00 75 1019.3
20260905025736 17 315 3.2 3.2 0.00 0.00 0.00 76 1019.3
20260905024236 17 292 0.0 0.0 0.00 0.00 0.00 76 1019.3
20260905022736 17 292 0.0 0.0 0.00 0.00 0.00 75 1019.2
20260905021236 18 292 0.0 0.0 0.00 0.00 0.00 74 1019.0
20260905015736 18 292 0.0 0.0 0.00 0.00 0.00 73 1018.8
20260905014236 18 292 0.0 0.0 0.00 0.00 0.00 72 1018.6
20260905012736 19 292 0.0 0.0 0.00 0.00 0.00 72 1018.7
20260905011236 19 292 0.0 0.0 0.00 0.00 0.00 72 1018.7